Weather History for Aurora, NE

Change the Weather History Date:

Sunday, October 14, 2012

  Actual Average Record
Temperature  
Mean Temperature 60 °F -  
Max Temperature 72 °F 68 °F 89 °F (1975)
Min Temperature 43 °F 40 °F 26 °F (1969)
Degree Days  
Heating Degree Days 6    
Growing Degree Days 10 (Base 50)    
Moisture  
Dew Point 39 °F    
Average Humidity 50    
Maximum Humidity 77    
Minimum Humidity 26    
Precipitation  
Precipitation 0.00 in - - ()
Sea Level Pressure  
Sea Level Pressure 29.92 in    
Wind  
Wind Speed 14 mph (NNW)    
Max Wind Speed 21 mph    
Max Gust Speed 28 mph    
Visibility 10 miles    
Events Thunderstorm    
Averages and records for this station are not official NWS values.
T = Trace of Precipitation, MM = Missing Value Source: NWS Daily Summary

Daily Weather History Graph

Daily Weather History Graph

Search for Another Location

Airport:

Trip Planner

Search our weather history database for the weather conditions in past years. The results will help you decide how hot, cold, wet, or windy it might be!

Date:

Astronomy

Oct. 14, 2012 Rise Set
Actual Time 7:42 AM CDT 6:52 PM CDT
Civil Twilight 7:15 AM CDT 7:19 PM CDT
Nautical Twilight 6:43 AM CDT 7:51 PM CDT
Astronomical Twilight 6:11 AM CDT 8:23 PM CDT
Moon 6:43 AM CDT (10/14) 6:12 PM CDT (10/14)
Length of Visible Light 12h 04m
Length of Day
11h 09m
Waning Crescent, 1% of the Moon is Illuminated
Oct 14
Waning Crescent
Oct 15
New
Oct 21
First Quarter
Oct 29
Full
Nov 6
Last Quarter

Hourly Weather History & Observations

Time (CDT) Temp. Windchill Dew Point Humidity Pressure Visibility Wind Dir Wind Speed Gust Speed Precip Events Conditions
12:15 AM 56.7 °F - 44.6 °F 64% 29.68 in 10.0 mi NNW 18.4 mph - N/A   Clear
12:35 AM 56.3 °F - 43.7 °F 63% 29.69 in 10.0 mi North 16.1 mph 21.9 mph N/A   Clear
12:55 AM 55.9 °F - 43.7 °F 63% 29.71 in 10.0 mi North 15.0 mph - N/A   Clear
1:15 AM 55.9 °F - 43.7 °F 63% 29.72 in 10.0 mi North 13.8 mph - N/A   Clear
1:35 AM 54.9 °F - 44.2 °F 67% 29.74 in 10.0 mi NNW 15.0 mph - N/A Thunderstorm Clear
1:55 AM 54.9 °F - 43.2 °F 65% 29.76 in 10.0 mi North 17.3 mph 21.9 mph N/A   Clear
2:15 AM 55.2 °F - 42.8 °F 63% 29.76 in 10.0 mi North 19.6 mph 23.0 mph N/A Thunderstorm Scattered Clouds
2:35 AM 55.9 °F - 42.8 °F 61% 29.77 in 10.0 mi North 20.7 mph 26.5 mph N/A   Scattered Clouds
2:55 AM 55.8 °F - 42.8 °F 62% 29.78 in 10.0 mi NNW 19.6 mph 24.2 mph N/A   Clear
3:15 AM 55.4 °F - 42.3 °F 61% 29.78 in 10.0 mi NNW 18.4 mph 25.3 mph N/A   Clear
3:35 AM 54.0 °F - 42.3 °F 65% 29.78 in 10.0 mi NNW 15.0 mph - N/A   Clear
3:55 AM 53.6 °F - 41.9 °F 65% 29.78 in 10.0 mi NNW 13.8 mph - N/A   Clear
4:15 AM 53.6 °F - 41.7 °F 64% 29.78 in 10.0 mi NNW 11.5 mph - N/A   Scattered Clouds
4:35 AM 54.5 °F - 41.7 °F 62% 29.79 in 10.0 mi NNW 13.8 mph - N/A   Scattered Clouds
4:55 AM 55.0 °F - 40.6 °F 58% 29.80 in 10.0 mi NNW 16.1 mph - N/A   Clear
5:15 AM 54.9 °F - 39.7 °F 57% 29.82 in 10.0 mi NNW 15.0 mph - N/A   Clear
5:35 AM 54.9 °F - 39.2 °F 56% 29.84 in 10.0 mi NNW 18.4 mph 24.2 mph N/A   Clear
5:55 AM 53.8 °F - 38.8 °F 57% 29.86 in 10.0 mi NNW 17.3 mph 20.7 mph N/A   Clear
6:15 AM 52.7 °F - 38.3 °F 58% 29.87 in 10.0 mi NNW 13.8 mph - N/A   Clear
6:35 AM 51.4 °F - 38.5 °F 61% 29.89 in 10.0 mi NNW 10.4 mph - N/A   Clear
6:55 AM 50.2 °F - 38.5 °F 64% 29.89 in 10.0 mi North 10.4 mph - N/A   Clear
7:15 AM 48.7 °F - 38.5 °F 68% 29.91 in 10.0 mi NNW 11.5 mph - N/A   Clear
7:35 AM 50.0 °F - 38.3 °F 64% 29.92 in 10.0 mi NNW 12.7 mph - N/A   Clear
7:55 AM 49.3 °F - 37.9 °F 65% 29.92 in 10.0 mi NNW 15.0 mph - N/A   Clear
8:15 AM 50.0 °F - 37.8 °F 63% 29.94 in 10.0 mi NNW 18.4 mph - N/A   Clear
8:35 AM 50.9 °F - 37.8 °F 61% 29.95 in 10.0 mi NNW 17.3 mph - N/A   Clear
8:55 AM 52.0 °F - 37.6 °F 58% 29.96 in 10.0 mi NNW 16.1 mph - N/A   Clear
9:15 AM 53.1 °F - 38.1 °F 57% 29.96 in 10.0 mi NNW 17.3 mph - N/A   Clear
9:35 AM 54.5 °F - 37.9 °F 54% 29.97 in 10.0 mi NNW 18.4 mph 24.2 mph N/A   Clear
9:55 AM 55.6 °F - 37.0 °F 50% 29.96 in 10.0 mi NNW 18.4 mph 25.3 mph N/A   Clear
10:15 AM 57.2 °F - 37.8 °F 48% 29.97 in 10.0 mi NNW 20.7 mph - N/A   Clear
10:35 AM 58.1 °F - 37.9 °F 47% 29.99 in 10.0 mi NNW 19.6 mph 26.5 mph N/A   Clear
10:55 AM 59.2 °F - 38.1 °F 46% 30.00 in 10.0 mi NNW 19.6 mph 26.5 mph N/A   Clear
11:15 AM 60.8 °F - 38.1 °F 43% 30.00 in 10.0 mi NNW 20.7 mph 26.5 mph N/A   Clear
11:35 AM 62.1 °F - 37.8 °F 41% 30.01 in 10.0 mi NNW 18.4 mph - N/A   Clear
11:55 AM 62.6 °F - 37.4 °F 39% 30.01 in 10.0 mi NNW 17.3 mph 23.0 mph N/A   Clear
12:15 PM 63.9 °F - 37.2 °F 37% 30.01 in 10.0 mi NNW 16.1 mph 24.2 mph N/A   Clear
12:35 PM 65.5 °F - 36.0 °F 34% 30.01 in 10.0 mi NNW 12.7 mph 24.2 mph N/A   Clear
12:55 PM 66.6 °F - 35.6 °F 32% 30.01 in 10.0 mi NW 17.3 mph 21.9 mph N/A   Clear
1:15 PM 67.5 °F - 35.4 °F 31% 30.00 in 10.0 mi NNW 13.8 mph 21.9 mph N/A   Clear
1:35 PM 68.5 °F - 34.7 °F 29% 30.00 in 10.0 mi NW 18.4 mph 25.3 mph N/A   Clear
1:55 PM 69.4 °F - 35.1 °F 28% 30.00 in 10.0 mi NNW 18.4 mph 23.0 mph N/A   Clear
2:15 PM 70.0 °F - 34.9 °F 28% 30.00 in 10.0 mi NNW 18.4 mph 27.6 mph N/A   Clear
2:35 PM 70.9 °F - 35.2 °F 27% 29.99 in 10.0 mi NNW 20.7 mph 26.5 mph N/A   Clear
3:15 PM 72.0 °F - 35.6 °F 26% 29.98 in 10.0 mi NW 15.0 mph 24.2 mph N/A   Clear
3:35 PM 72.3 °F - 35.4 °F 26% 29.98 in 10.0 mi NNW 15.0 mph 21.9 mph N/A   Clear
3:55 PM 72.5 °F - 35.8 °F 26% 29.97 in 10.0 mi NNW 12.7 mph 18.4 mph N/A   Clear
4:15 PM 72.7 °F - 35.6 °F 26% 29.97 in 10.0 mi NNW 13.8 mph 19.6 mph N/A   Clear
4:35 PM 72.5 °F - 36.0 °F 26% 29.96 in 10.0 mi NNW 15.0 mph - N/A   Clear
4:55 PM 72.7 °F - 36.1 °F 26% 29.96 in 10.0 mi North 11.5 mph - N/A   Clear
5:15 PM 72.0 °F - 36.0 °F 27% 29.96 in 10.0 mi NNW 9.2 mph - N/A   Clear
5:35 PM 71.6 °F - 36.0 °F 27% 29.96 in 10.0 mi North 5.8 mph - N/A   Clear
5:55 PM 68.4 °F - 37.0 °F 32% 29.96 in 10.0 mi NNE 5.8 mph - N/A   Clear
6:15 PM 67.1 °F - 37.6 °F 34% 29.97 in 10.0 mi NE 4.6 mph - N/A   Clear
6:35 PM 64.8 °F - 37.8 °F 37% 29.97 in 10.0 mi ENE 3.5 mph - N/A   Scattered Clouds
6:55 PM 62.2 °F - 37.8 °F 40% 29.98 in 10.0 mi ENE 3.5 mph - N/A   Mostly Cloudy
7:15 PM 63.1 °F - 37.6 °F 39% 29.98 in 10.0 mi Calm Calm - N/A   Mostly Cloudy
7:35 PM 62.2 °F - 37.8 °F 40% 29.99 in 10.0 mi Calm Calm - N/A   Mostly Cloudy
7:55 PM 59.0 °F - 38.7 °F 47% 29.99 in 10.0 mi ESE 3.5 mph - N/A   Scattered Clouds
8:15 PM 57.9 °F - 38.3 °F 48% 29.99 in 10.0 mi Calm Calm - N/A   Clear
8:35 PM 57.2 °F - 39.6 °F 52% 30.00 in 10.0 mi Calm Calm - N/A   Clear
8:55 PM 52.9 °F - 39.4 °F 60% 30.00 in 10.0 mi Calm Calm - N/A   Clear
9:15 PM 54.9 °F - 39.2 °F 56% 30.00 in 10.0 mi South 3.5 mph - N/A   Clear
9:35 PM 54.3 °F - 39.6 °F 57% 30.01 in 10.0 mi Calm Calm - N/A   Clear
9:55 PM 53.2 °F - 39.6 °F 60% 30.01 in 10.0 mi Calm Calm - N/A   Clear
10:15 PM 49.3 °F - 38.8 °F 67% 30.01 in 10.0 mi Calm Calm - N/A   Clear
10:35 PM 51.8 °F - 39.2 °F 62% 30.01 in 10.0 mi Calm Calm - N/A   Clear
10:55 PM 48.4 °F - 39.2 °F 71% 30.01 in 10.0 mi SSW 3.5 mph - N/A   Clear
11:15 PM 49.8 °F - 39.2 °F 67% 30.01 in 10.0 mi SW 3.5 mph - N/A   Clear
11:35 PM 47.8 °F - 38.3 °F 70% 30.01 in 10.0 mi SW 5.8 mph - N/A   Clear
11:55 PM 43.3 °F 40.7 °F 36.5 °F 77% 30.01 in 10.0 mi SW 4.6 mph - N/A   Clear